Location: Sawyer Lake
(45.2517°N, 88.7550°W)
Time: 19:50:47
(UTC-05:00)

Daily predictions for brighter satellites

Satellite Brightness Start Highest point End
(mag) Time Altitude Azimuth Time Altitude Azimuth Time Altitude Azimuth
Cosmos 2237 4.2 18:18:29 10° NNW 18:24:14 68° ENE 18:29:55 10° SE
Lacrosse 5 rocket 3.5 18:21:01 10° WNW 18:24:16 19° NNW 18:27:24 10° NE
Cosmos 1908 4.0 18:21:28 10° SSE 18:24:56 31° E 18:28:23 10° NNE
Cosmos 1500 Rocket 3.5 18:21:43 10° N 18:26:03 66° E 18:30:20 10° SSE
Cosmos 2237 Rocket 3.5 18:21:54 10° N 18:26:10 21° NE 18:30:25 10° E
MTI 4.2 18:25:52 10° NNE 18:28:56 41° E 18:31:59 10° S
Cosmos 44 3.7 18:26:03 10° S 18:30:02 35° ESE 18:33:59 10° NE
AQUARIUS 4.4 18:26:01 10° S 18:30:31 78° WSW 18:35:03 10° NNW
Aureole 2 Rocket 3.7 18:29:19 10° N 18:32:44 28° ENE 18:36:15 10° ESE
SL-8 R/B 3.8 18:28:56 10° WSW 18:33:45 88° NNW 18:38:37 10° ENE
RESURS DK-1 3.2 18:29:49 10° NW 18:33:53 56° WSW 18:37:55 10° S
SL-08 R/B 4.5 18:30:24 10° S 18:36:32 88° E 18:42:41 10° N
Cosmos 2227 Rocket 3.9 18:34:34 10° ESE 18:36:38 12° E 18:38:43 10° ENE
SL-16 R/B 4.0 18:35:42 10° N 18:38:24 13° NE 18:41:06 10° ENE
Gbstr 26 Del rocket 3.5 18:35:11 10° WNW 18:39:56 82° NNE 18:45:52 10° ESE
Cosmos 1452 Rocket 3.7 18:34:53 10° NNW 18:40:09 79° WSW 18:45:24 10° SSE
Abrixas rocket 2.8 18:37:30 10° WNW 18:40:41 46° N 18:43:32 12° ENE
SMAP 3.8 18:36:51 10° S 18:41:26 60° W 18:46:03 10° NNW
USA 234 4.4 18:37:19 10° ENE 18:42:57 32° N 18:48:35 10° WNW
Iridium 4 Rocket 4.2 18:38:34 10° SSE 18:43:50 40° E 18:49:18 10° NNE
SPOT 3 Rocket 3.7 18:38:59 10° SSE 18:44:03 55° ENE 18:49:09 10° N
Cosmos 2360 Rocket 3.0 18:41:17 10° NNW 18:46:49 56° WSW 18:52:20 10° S
Sich 1 4.0 18:45:11 10° NNE 18:48:55 26° ENE 18:52:39 10° SE
Cosmos 1300 4.0 18:46:24 10° SE 18:49:08 19° E 18:51:52 10° NE
ATLAS 5 CENTAUR R/B 4.3 18:47:50 10° NNW 18:49:35 11° N 18:51:24 10° NNE
Cosmos 1980 4.5 18:45:58 10° N 18:50:58 31° NE 18:55:56 10° ESE
Cosmos 1400 Rocket 4.2 18:47:19 10° NNW 18:51:10 43° W 18:54:55 10° SSW
COSMO-SKYMED 1 2.6 18:50:17 10° NNE 18:54:36 59° E 18:58:52 10° S
CZ-4C R/B 2.4 18:51:20 10° SSW 18:56:18 49° ESE 19:02:00 10° NE
Cosmos 2151 3.8 18:52:33 10° NNW 18:56:45 55° W 19:00:54 10° S
Resurs 01 Rocket 3.6 18:57:31 11° NE 18:57:31 11° NE 18:58:32 10° NE
Cosmos 2058 3.8 18:54:00 10° NNW 18:58:05 53° W 19:02:07 10° S
Cosmos 2098 Rocket 3.8 18:54:18 10° SSE 18:58:57 48° E 19:04:49 10° NNE
COSMOS 2428 2.7 18:55:19 10° NNW 19:01:02 88° ENE 19:06:44 10° SSE
FREGAT/IRIS 3.9 19:00:58 20° ENE 19:01:09 21° ENE 19:03:28 10° NNE
Abrixas 2.4 18:59:36 10° SW 19:01:37 36° SSE 19:02:09 29° ESE
FENGYUN 3A 3.7 18:57:23 10° SSE 19:02:39 57° ENE 19:07:58 10° N
Cosmos 2333 Rocket 2.4 18:58:14 10° NNW 19:03:52 52° ENE 19:09:28 10° SE
Cosmos 1805 Rocket 3.6 19:00:51 10° N 19:05:11 57° E 19:09:31 10° SSE
Cosmos 2219 3.3 19:01:09 10° S 19:06:47 59° ESE 19:12:25 10° NNE
Cosmos 44 Rocket 3.1 19:02:10 10° SSW 19:06:51 77° ESE 19:11:34 10° NE
MOS 1 4.5 19:03:23 10° SSE 19:09:03 78° WSW 19:14:48 10° NNW
Meteor 2-10 4.4 19:06:24 10° SSE 19:11:00 37° E 19:15:43 10° NNE
Cosmos 158 Rocket 4.0 19:06:21 10° SSW 19:11:26 88° WNW 19:16:43 10° NNE
ERS-2 4.2 19:09:52 10° SSW 19:13:11 31° W 19:16:32 10° NW
Cosmos 2297 Rocket 3.3 19:09:26 10° SSE 19:13:31 21° E 19:14:05 20° E
Cosmos 1666 Rocket 3.8 19:10:24 10° N 19:14:35 45° ENE 19:18:44 10° SSE
Cosmos 1048 Rocket 3.9 19:12:04 10° SSW 19:17:11 86° ESE 19:22:20 10° NNE
APEX 2.8 19:14:15 10° SW 19:17:14 63° WNW 19:19:32 14° NNE
YAOGAN 1 4.0 19:13:44 10° S 19:17:50 41° W 19:21:58 10° NNW
Cosmos 1633 Rocket 3.4 19:15:01 10° N 19:19:14 42° ENE 19:23:27 10° SSE
Cosmos 1726 2.0 19:16:49 10° S 19:20:28 68° E 19:24:08 10° NNE
CZ-4 R/B 3.9 19:18:19 10° SSW 19:21:49 26° W 19:25:19 10° NW
EO 1 Del DPAF 4.0 19:18:08 10° N 19:21:54 53° WNW 19:25:39 10° SSW
Envisat 4.2 19:24:49 22° ENE 19:24:49 22° ENE 19:28:31 10° NNE
Cosmos 2251 Rocket 4.4 19:20:24 10° SSE 19:24:47 27° E 19:25:27 26° E
NOAA 12 4.3 19:27:04 10° S 19:32:21 75° WSW 19:37:44 10° NNW
Cosmos 2219 Rocket 2.2 19:27:54 10° NNW 19:33:32 83° WSW 19:39:09 10° SSE
FengYun 1-2 T 4.1 19:31:06 10° SSE 19:36:31 66° ENE 19:41:58 10° N
Cosmos 1934 Rocket 3.9 19:30:16 10° S 19:36:35 71° E 19:42:55 10° NNE
Cosmos 1821 Rocket 4.0 19:32:15 10° S 19:38:26 87° W 19:44:46 10° N
Meteor 2-2 Rocket 4.3 19:33:10 10° SSE 19:38:37 50° E 19:44:03 10° NNE
Cosmos 2084 3.3 19:35:13 10° NW 19:39:01 74° SW 19:40:52 29° SSE
Cosmos 2221 3.6 19:35:01 10° SSW 19:39:11 47° WNW 19:43:26 10° N
ALOS 2.7 19:36:35 10° S 19:41:12 62° W 19:45:51 10° NNW
Thor Agena Rocket 3.4 19:37:07 10° NNE 19:42:11 66° ESE 19:47:12 10° S
HJ-1C 4.3 19:47:11 36° NNE 19:47:11 36° NNE 19:49:26 10° N
USA 267 4.3 19:48:34 24° SE 19:48:34 24° SE 19:53:01 10° S
Cosmos 1331 Rocket 3.9 19:43:53 10° NNW 19:49:09 83° ENE 19:52:43 21° SSE
SJ-6B 2.6 20:01:34 81° NNW 20:01:34 81° NNW 20:05:10 10° NNW
BREEZE-M DEB (TANK) 3.7 19:44:33 10° WNW 20:02:22 83° SSW 20:04:21 43° SE
Lacrosse 5 rocket 3.3 20:01:48 10° NW 20:04:48 18° N 20:04:48 18° N
Cosmos 2123 Rocket 4.2 20:00:58 10° NNW 20:07:12 72° W 20:13:26 10° S
In-Cosmos 22 Rocket 4.4 20:02:36 10° NNW 20:08:21 73° W 20:14:08 10° S
MOS 1-B Rocket 3.8 20:06:24 38° SE 20:08:41 70° ENE 20:14:59 10° N
H-2A R/B 3.5 20:07:18 22° S 20:09:35 54° W 20:13:28 10° NNW
Cosmos 2237 Rocket 2.3 20:05:11 10° NNW 20:10:54 78° WSW 20:13:39 32° SSE
Cosmos 1605 Rocket 3.8 20:06:50 10° S 20:12:56 90° SE 20:19:04 10° N
Cosmos 1470 Rocket 3.7 20:08:35 10° N 20:12:26 64° N 20:12:26 64° N
Cosmos 967 Rocket 4.4 20:08:41 10° NW 20:15:12 88° NE 20:17:16 47° SE
SL-8 R/B 3.9 20:11:49 10° W 20:16:36 58° N 20:16:43 58° N
Abrixas rocket 4.1 20:14:13 10° WNW 20:16:04 31° WNW 20:16:04 31° WNW
Cosmos 1153 Rocket 4.3 20:12:19 10° S 20:18:24 69° E 20:24:35 10° NNE
Cosmos 1302 Rocket 3.8 20:13:15 10° NNW 20:18:31 85° ENE 20:18:55 76° SE
Cosmos 2227 Rocket 2.0 20:14:05 10° SSW 20:19:44 83° ESE 20:21:12 52° NE
SL-16 R/B 2.3 20:18:09 10° NNW 20:23:15 57° NE 20:23:15 57° NE
USA 234 3.9 20:23:45 37° NE 20:24:59 40° NNE 20:30:59 10° NW
Spot 2 Rocket 4.1 20:29:34 46° N 20:29:34 46° N 20:33:11 10° N
Cosmos 494 Rocket 4.3 20:25:35 10° SSW 20:30:38 62° WNW 20:33:04 30° N
Resurs 01 Rocket 3.1 20:35:06 30° NNW 20:35:06 30° NNW 20:37:24 10° NNW
ATLAS 5 CENTAUR R/B 4.0 20:32:22 10° NNW 20:35:38 20° NNE 20:35:38 20° NNE
Meteor 2-17 Rocket 4.3 20:30:42 10° S 20:36:46 86° E 20:42:54 10° N
Meteor 2-3 Rocket 3.9 20:36:21 10° NNW 20:42:06 70° W 20:42:50 62° SW
CZ-4C R/B 3.6 20:40:01 10° WSW 20:45:01 36° NW 20:48:07 22° NNE
Cosmos 2333 Rocket 4.1 20:43:07 10° NW 20:47:48 26° WSW 20:52:28 10° SSW
Cosmos 2297 Rocket 2.8 20:51:26 10° SW 20:56:00 53° WSW 20:56:00 53° WSW
Envisat 4.2 21:05:02 37° NW 21:05:02 37° NW 21:08:21 10° NNW
